Location: Keranqu�r�
(48.3833°N, 4.5333°W)
Time: 19:36:47
(UTC+00:00)

Daily predictions for brighter satellites

Satellite Brightness Start Highest point End
(mag) Time Altitude Azimuth Time Altitude Azimuth Time Altitude Azimuth
Cosmos 1943 Rocket 3.8 17:00:57 10° N 17:03:51 14° NNE 17:06:45 10° ENE
Cosmos 2322 Rocket 3.7 17:00:34 10° WSW 17:05:40 33° NW 17:10:47 10° NNE
Cosmos 1570 Rocket 4.1 17:01:08 10° S 17:06:23 67° ESE 17:11:39 10° NNE
PSLV R/B 3.9 17:02:26 10° SSE 17:06:32 85° ENE 17:10:40 10° NNW
SMAP 3.4 17:02:17 10° SE 17:06:42 45° ENE 17:11:08 10° N
PAYLOAD B 4.2 17:02:38 10° SSE 17:08:13 73° ENE 17:13:48 10° NNW
USA 281 4.0 17:03:37 10° E 17:09:02 29° NE 17:14:28 10° N
CZ-4C R/B 3.1 17:10:31 10° NNE 17:14:07 66° ESE 17:17:42 10° S
ATLAS 5 CENTAUR R/B 3.6 17:09:08 10° NW 17:14:36 48° WSW 17:20:55 10° SSE
MOS 1-B 4.4 17:09:20 10° SSE 17:15:08 89° ENE 17:21:00 10° NNW
CZ-4B DEB 4.4 17:11:32 10° SSE 17:17:03 83° WSW 17:22:34 10° NNW
NOSS 0 Rocket 4.4 17:11:58 10° S 17:17:46 42° ESE 17:23:35 10° NE
CREW DRAGON DEMO-1 DEB 3.3 17:14:56 10° WNW 17:17:48 42° N 17:20:29 11° ENE
Cosmos 405 2.9 17:16:07 10° S 17:19:35 68° E 17:23:04 10° NNE
Cosmos 389 Rocket 4.2 17:17:57 10° ESE 17:19:47 14° E 17:21:16 11° ENE
Cosmos 1606 4.2 17:17:07 10° SE 17:19:47 18° E 17:22:28 10° NE
Cosmos 2333 Rocket 2.3 17:15:01 10° SSW 17:20:44 85° WNW 17:26:27 10° NNE
Cosmos 2084 Rocket 4.4 17:17:54 10° WSW 17:21:49 41° NW 17:25:52 10° NNE
CZ-2C R/B 4.3 17:18:52 10° E 17:22:06 17° ENE 17:25:15 10° NNE
NOSS 2-1 (C) 4.3 17:18:47 10° NW 17:23:43 88° NE 17:30:45 10° SE
Cosmos 2327 Rocket 4.5 17:18:34 10° N 17:24:40 62° ENE 17:30:47 10° SSE
H-2A R/B 2.0 17:20:59 10° NNE 17:25:06 62° ESE 17:29:17 10° S
Radarsat Rocket 4.1 17:19:14 10° SSE 17:25:11 90° ENE 17:31:48 10° NNW
Cosmos 2074 Rocket 4.1 17:19:02 10° N 17:25:18 89° WSW 17:31:34 10° S
Cosmos 1607 4.5 17:19:38 10° SW 17:25:54 61° NW 17:32:20 10° NE
COSMOS 2428 2.7 17:20:15 10° SSW 17:26:00 85° ESE 17:31:46 10° NNE
Cosmos 372 Rocket 4.3 17:20:57 10° NNW 17:26:05 73° WSW 17:31:15 10° SSE
Landsat 5 3.6 17:23:41 10° NNE 17:28:03 86° ESE 17:32:30 10° SSW
NOAA 6 4.4 17:23:39 10° S 17:28:49 73° WSW 17:33:58 10° NNW
Cosmos 724 4.3 17:22:58 10° SSW 17:28:50 76° ESE 17:34:54 10° NE
NOSS 2-1 (D) 4.4 17:24:13 10° NW 17:29:12 86° SW 17:36:16 10° SE
Cosmos 2298 Rocket 4.0 17:24:23 10° NNW 17:29:44 78° ENE 17:35:02 10° SSE
Cosmos 1862 3.3 17:26:13 10° N 17:30:16 68° E 17:34:15 10° SSE
Cosmos 1818 3.6 17:25:09 10° NW 17:30:38 70° NE 17:36:05 10° SE
Cosmos 2150 Rocket 3.9 17:26:22 10° NNW 17:31:34 75° ENE 17:36:42 10° SSE
ADEOS Rocket 3.8 17:25:25 10° NNE 17:33:02 82° WNW 17:40:50 10° SSW
Cosmos 2278 Rocket 2.2 17:28:21 10° NNW 17:34:05 80° ENE 17:39:46 10° SSE
Cosmos 1633 Rocket 4.2 17:31:58 10° NNE 17:35:22 21° ENE 17:38:43 10° ESE
Cosmos 2184 Rocket 4.3 17:30:11 10° NNW 17:36:36 78° W 17:42:56 10° S
USA 215 3.6 17:32:16 12° ENE 17:38:13 51° SE 17:44:33 10° SSW
CZ-4 R/B 2.8 17:37:52 14° E 17:39:29 18° ENE 17:42:09 10° NNE
BREEZE-M DEB (TANK) 4.3 17:38:22 10° WSW 17:42:33 87° SSE 17:54:19 15° ENE
CZ-2D R/B 4.2 17:43:42 10° SE 17:46:55 26° ENE 17:50:09 10° N
Cosmos 2360 Rocket 3.9 17:42:30 10° WSW 17:47:20 29° NW 17:52:12 10° NNE
BREEZE-M DEB (TANK) 3.4 17:45:56 10° SSW 17:48:06 21° SSE 17:48:48 18° SE
Cosmos 482 Debris 3.8 17:47:05 10° WNW 17:48:40 25° N 17:48:42 25° N
Abrixas rocket 3.2 17:46:34 10° W 17:49:09 35° SSW 17:51:40 10° SE
Cosmos 1125 Rocket 3.4 17:44:04 10° NNW 17:49:18 75° ENE 17:54:30 10° SSE
Cosmos 1295 Rocket 4.4 17:43:28 10° N 17:49:38 75° E 17:55:50 10° SSE
Meteor 2-12 Rocket 4.5 17:43:39 10° N 17:49:45 58° ENE 17:55:46 10° SSE
Cosmos 2208 Rocket 4.4 17:44:37 10° SSW 17:49:52 68° WNW 17:55:14 10° NNE
Cosmos 1356 3.9 17:47:56 10° N 17:51:10 37° ENE 17:54:21 10° SE
Cosmos 44 4.2 17:47:34 10° NNW 17:52:18 33° NE 17:55:25 19° E
IRS-1C Rocket 4.4 17:47:28 10° SE 17:52:28 45° ENE 17:57:29 10° N
Cosmos 2221 3.2 17:48:28 10° SSW 17:52:45 56° WNW 17:57:01 10° N
Cosmos 1500 Rocket 4.2 17:49:10 10° NNW 17:53:30 60° W 17:57:50 10° S
Cosmos 1939 Rocket 3.1 17:50:03 10° SE 17:53:42 42° ENE 17:57:24 10° N
ERS-2 2.5 17:50:53 13° NNE 17:53:52 42° E 17:57:21 10° S
CSL-04 DEB 4.4 17:50:52 10° NNE 17:54:56 90° ESE 17:59:06 10° SSW
Cosmos 1900 4.5 17:50:00 10° SW 17:55:06 84° NW 17:59:39 14° NE
Cosmos 2219 Rocket 2.9 17:50:20 10° SW 17:55:52 53° NW 18:01:24 10° NNE
ISS -3.1 17:54:35 10° SW 17:57:46 41° SSE 17:59:04 27° E
CZ-4B R/B 3.6 17:52:29 10° S 17:57:48 65° WSW 18:03:05 10° NNW
FengYun 1-2 T 4.2 17:55:45 10° SSE 18:01:19 89° WSW 18:06:52 10° NNW
CZ-4B R/B 1.1 18:00:04 20° NNE 18:01:58 58° ESE 18:05:00 10° S
SL-24 R/B - RUBIN 2 4.5 17:55:53 10° NW 18:02:17 80° SW 18:07:56 10° SSE
SL-16 R/B 4.5 17:59:12 10° WNW 18:02:20 15° NNW 18:05:29 10° N
Cosmos 2237 Rocket 2.1 17:58:09 10° SSW 18:03:43 68° ESE 18:08:37 14° NNE
GENESIS II 4.1 18:00:02 10° NW 18:04:01 87° NE 18:07:54 10° SE
YAOGAN 1 3.4 18:03:52 22° ESE 18:05:31 29° ENE 18:09:16 10° N
NOAA 11 4.2 18:00:16 10° SSE 18:05:42 88° WSW 18:11:11 10° NNW
YAOGAN 3 4.5 18:05:38 10° SSE 18:09:58 70° ENE 18:14:20 10° N
Okean-O 3.0 18:07:02 10° SE 18:11:08 38° ENE 18:15:16 10° N
USA 267 3.2 18:05:49 11° ESE 18:12:06 81° NNE 18:18:39 10° NW
COSMO-SKYMED 1 2.7 18:10:59 17° NNE 18:14:13 50° E 18:18:26 10° S
SL-24 R/B 4.3 18:13:04 28° NE 18:14:39 40° E 18:18:17 10° SSE
USA 81 4.1 18:10:39 10° N 18:15:50 54° E 18:21:00 10° SSE
Cosmos 2218 Rocket 4.0 18:10:03 10° N 18:16:05 52° ENE 18:22:03 10° SSE
Cosmos 2369 Rocket 3.2 18:11:30 10° N 18:16:09 25° NE 18:16:38 25° NE
CSL-04 Rocket 4.3 18:18:44 29° E 18:20:02 32° ENE 18:24:44 10° N
Cosmos 1980 3.7 18:15:58 10° SSW 18:21:39 85° WNW 18:26:25 15° NNE
Okean O Rocket 3.2 18:20:16 10° SSW 18:24:17 36° W 18:28:21 10° NNW
H-2A R/B 2.5 18:23:36 24° ESE 18:26:06 39° ENE 18:30:56 10° N
CZ-4 R/B 4.3 18:22:00 10° SSE 18:26:08 71° ENE 18:30:16 10° N
Sich 1 3.3 18:22:50 10° NNW 18:27:14 69° W 18:31:34 10° S
Cosmos 2366 rocket 3.9 18:22:24 10° N 18:28:36 62° ENE 18:34:41 10° SSE
Cosmos 1933 3.3 18:26:30 10° S 18:30:28 61° E 18:31:26 45° NE
PSLV R/B 4.0 18:30:52 50° E 18:31:12 52° E 18:35:08 10° S
Cosmos 1932 4.5 18:27:31 10° SSW 18:34:04 82° SE 18:37:56 27° NE
SKYMED 3 4.5 18:35:19 20° NNE 18:38:20 88° ESE 18:42:40 10° SSW
Cosmos 2297 3.6 18:34:24 10° NNW 18:40:06 75° ENE 18:44:22 18° SE
Cosmos 1666 Rocket 3.7 18:37:27 10° NNW 18:41:52 76° W 18:46:16 10° S
Helios 1A Rocket 2.7 18:39:39 19° SSE 18:42:28 77° ENE 18:46:30 10° NNW
Cosmos 1151 Rocket 2.8 18:42:09 10° S 18:46:26 73° E 18:46:45 69° ENE
SL-24 DEB 4.1 18:43:34 10° N 18:48:21 71° E 18:53:04 10° S
Cosmos 1943 Rocket 2.2 18:43:28 10° NNW 18:48:55 54° ENE 18:49:30 51° E
Meteor 1-26 Rocket 4.3 18:43:21 10° S 18:49:16 63° E 18:53:30 20° NNE
Cosmos 1328 Rocket 3.5 18:45:06 10° S 18:48:55 63° SE 18:48:55 63° SE
Cosmos 2341 Rocket 4.5 18:43:56 10° NNW 18:50:06 61° W 18:56:17 10° S
SL-16 R/B 2.2 18:45:18 10° S 18:50:51 60° ESE 18:51:51 52° ENE
USA 281 3.3 18:46:25 10° SSE 18:52:59 79° WSW 18:59:36 10° NNW
Cosmos 389 Rocket 3.7 18:50:52 10° SW 18:54:07 39° WNW 18:55:08 31° NNW
MOS 1 Rocket 3.6 18:53:31 48° NE 18:54:50 62° E 19:00:13 10° S
Cosmos 1606 4.0 18:51:30 10° SW 18:55:12 40° WNW 18:58:06 15° N
ARGOS 3.5 18:57:17 46° NE 18:57:17 46° NE 19:01:36 10° N
CZ-2C R/B 3.0 18:56:16 10° S 19:01:27 79° WSW 19:06:25 10° NNW
SKYMED 2 4.2 18:59:37 21° N 19:02:18 54° WNW 19:06:32 10° SSW
Cosmos 2333 Rocket 4.3 19:01:43 10° W 19:05:53 20° NW 19:10:02 10° N
Cosmos 2285 Rocket 4.0 18:59:47 10° NNW 19:06:14 81° WSW 19:12:35 10° SSE
Cosmos 1867 3.4 19:02:12 10° SW 19:07:39 87° SE 19:08:14 72° NE
Lacrosse 5 rocket 3.6 19:08:25 10° SSW 19:08:55 13° SSW 19:08:55 13° SSW
Cosmos 1633 Rocket 4.2 19:09:12 10° NNW 19:13:23 43° W 19:17:30 10° SSW
CZ-4 R/B 2.2 19:13:54 48° WSW 19:14:09 49° W 19:18:02 10° NNW
USA 215 3.4 19:19:37 48° NE 19:21:24 67° NNW 19:27:52 10° WSW
Cosmos 1821 Rocket 4.2 19:25:09 10° N 19:30:01 57° N 19:30:01 57° N
Cosmos 44 3.9 19:28:40 10° NW 19:33:51 59° WSW 19:33:53 59° WSW
ISS -0.7 19:31:13 10° W 19:32:02 16° W 19:32:02 16° W
CSL-04 Debris 4.5 19:33:38 46° SSW 19:35:08 65° WSW 19:40:37 10° NNW
YAOGAN 1 4.2 19:41:01 32° WSW 19:41:32 33° W 19:45:29 10° NNW
Cosmos 2237 Rocket 4.0 19:43:38 10° WSW 19:48:18 26° NW 19:50:28 21° NNW
USA 267 4.4 19:53:12 29° S 19:55:31 37° SW 20:01:30 10° WNW
Cosmos 2369 Rocket 3.4 19:55:05 10° NNW 19:58:28 37° NW 19:58:28 37° NW
H-2A R/B 3.5 20:04:14 30° SW 20:05:34 34° W 20:10:20 10° NNW
Cosmos 1943 Rocket 4.1 20:27:45 10° NW 20:31:04 25° W 20:31:04 25° W
SL-16 R/B 4.1 20:30:29 10° WSW 20:33:46 25° WNW 20:33:46 25° WNW
